DECAYED

NOAA 17 DEB, 48752 (Decayed)

Orbit data source: Space-Track

NOAA 17 DEB, 48752 was space debris in SSO originally from a launch on Mon, 24 Jun 2002 UTC launched from the Air Force Western Test Range (AFWTR). Debris objects in space refer to the collection of defunct objects orbiting the Earth. Examples of debris include non-operational satellites, rocket bodies, and fragments generated from explosions, collisions, or faulty payload assembly.

Loading next visibility...
Identifier
48752, 2002-032CM
Orbit
Decayed
Country
Flag of USUS
Related business
Manufacturer
Unknown
Mission
Decayed spacecraft
Bus & Motor
Unknown
Mass
Unknown
Launch date (UTC)
2002-06-24 (24 years ago)
Launch vehicle
Unknown
Launch site
Air Force Western Test Range (AFWTR)
Object type
Payload
Rocket body
Debris
Shape & HBR
Unknown shape, 0.1 m
Radar Cross Section
Small (<0.1 m²)

Expand to show TLE details & history
Last TLE update: 5 months ago

TLE from 5 months ago
0 NOAA 17 DEB
1 48752U 02032CM  26013.58399759  .03440743  00000-0  12488-1 0  9999
2 48752  98.6703  68.5245 0010405 300.6617  59.3623 15.84878107255216
Epoch: 2026-01-13T14:00Z
TLE epoch observation values (Epoch: 2026-01-13T14:00:57.391Z)
Latitude
-0.00004°
Longitude
105.22113°
Altitude
316.26 km
Speed
7.72 km/s
True Right ascension
04h 34m 05s
True Declination
0° 00' 00"
Sunlit
Object was in full shadow at epoch
Visualization orbit readout
Latitude
Unknown
Longitude
Unknown
Altitude
Unknown
Speed
Unknown
Apparent Right ascension
Unknown
Apparent Declination
Unknown
Sunlit
N/A
Visualization observer readout
Local Sidereal Time
23:18:49
Azimuth
Unknown
Elevation
Unknown
Doppler factor
Unknown
Orbital elements
Apogee altitude
320.571 km
Perigee altitude
306.645 km
Semi-major axis
6,691.745 km
Eccentricity
0.00104
Inclination
98.6703°
RAAN
68.5245°
Arg. of periapsis
300.6617°
True anomaly
59.46496°
Mean anomaly
59.3623°
Eccentric anomaly
59.41362°
Mean motion
3.96492 °/min
Orbital period
90.8 mins
BSTAR
0.012488
Loading maneuver chart data...
Computing Atmospheric mass density...

Documentation

Showing up to 5 results
|